Location: New Town
(33.2710°N, 90.7534°W)
Time: 13:02:21
(UTC+00:00)

Explorer 11/Cluster Stage 4 - Pass Details

Date: 17 May 2021
Orbit: 467 x 1257 km, 28.8° (Epoch: 14 June)

Event Time Altitude Azimuth Distance (km) Brightness Sun altitude
Rises 04:47:53 0° 273° (W) 4,186 10.6 -34.6°
Reaches altitude 10° 04:50:57 10° 267° (W) 3,229 9.8 -34.9°
Enters shadow 04:54:32 27° 254° (WSW) 2,206 8.8 -35.1°
Maximum altitude 04:58:44 47° 197° (SSW) 1,561 - -35.4°
Drops below altitude 10° 05:05:54 10° 127° (SE) 2,969 - -35.8°
Sets 05:08:36 0° 121° (ESE) 3,826 - -36.0°
